K2BIG Weather Reports


time (UTC)temp
C
wind
direction
speed
KPH
gust
KPH
rain 1hr
cm
rain 24hr
cm
rain mn
cm
humidity
%
barometer
mb
20260508174016 14 203 6.4 16.1 0.00 0.05 0.05 57 1010.8
20260508173516 15 203 9.7 19.3 0.00 0.05 0.05 55 1010.9
20260508173016 15 180 6.4 17.7 0.00 0.05 0.05 55 1010.9
20260508172516 15 225 6.4 14.5 0.00 0.05 0.05 60 1010.9
20260508172015 15 225 4.8 12.9 0.00 0.05 0.05 61 1010.9
20260508171516 14 270 6.4 14.5 0.00 0.05 0.05 58 1011.1
20260508171016 13 225 8.0 19.3 0.00 0.05 0.05 63 1011.3
20260508170515 13 248 6.4 16.1 0.00 0.05 0.05 60 1011.5
20260508170017 13 225 6.4 16.1 0.00 0.05 0.05 58 1011.4
20260508165516 13 225 1.6 6.4 0.00 0.05 0.05 59 1011.4
20260508165015 13 225 6.4 11.3 0.00 0.05 0.05 58 1011.4
20260508164516 13 248 6.4 17.7 0.00 0.05 0.05 61 1011.4
20260508164016 13 248 9.7 16.1 0.00 0.05 0.05 62 1011.6
20260508163516 13 225 8.0 17.7 0.00 0.05 0.05 61 1011.5
20260508163016 12 248 4.8 11.3 0.00 0.05 0.05 63 1011.7
20260508162516 12 248 4.8 12.9 0.00 0.05 0.05 62 1011.6
20260508162015 12 225 4.8 12.9 0.00 0.05 0.05 62 1011.7
20260508161515 12 203 4.8 9.7 0.00 0.05 0.05 62 1011.7
20260508161015 12 248 3.2 14.5 0.00 0.05 0.05 62 1011.7
20260508160515 12 225 6.4 11.3 0.00 0.05 0.05 61 1011.7
20260508160015 12 248 6.4 14.5 0.00 0.05 0.05 59 1011.7
20260508155515 12 225 6.4 12.9 0.00 0.05 0.05 60 1011.8
20260508155015 13 225 8.0 19.3 0.00 0.05 0.05 60 1011.9
20260508154515 13 248 6.4 20.9 0.00 0.05 0.05 61 1011.9
20260508154015 13 225 4.8 11.3 0.00 0.05 0.05 61 1011.8
20260508153515 13 225 6.4 14.5 0.00 0.05 0.05 59 1011.8
20260508153015 13 248 4.8 6.4 0.00 0.05 0.05 61 1011.8
20260508152516 13 203 6.4 16.1 0.00 0.05 0.05 59 1011.8
20260508152015 13 248 4.8 14.5 0.00 0.05 0.05 60 1011.8
20260508151515 13 248 6.4 16.1 0.00 0.05 0.05 59 1011.7
20260508151015 13 203 3.2 11.3 0.00 0.05 0.05 59 1011.7
20260508150515 13 203 4.8 12.9 0.00 0.05 0.05 58 1011.8
20260508150015 14 225 6.4 11.3 0.00 0.05 0.05 59 1011.8
20260508145515 14 225 4.8 16.1 0.00 0.05 0.05 56 1011.8
20260508145015 14 270 4.8 11.3 0.00 0.05 0.05 58 1011.9
20260508144515 14 225 4.8 14.5 0.00 0.05 0.05 56 1011.9
20260508144015 14 225 6.4 11.3 0.00 0.05 0.05 60 1011.9
20260508143515 13 203 3.2 8.0 0.00 0.05 0.05 62 1012.0
20260508143015 13 225 4.8 11.3 0.00 0.05 0.05 63 1012.1
20260508142515 13 0 3.2 14.5 0.00 0.05 0.05 64 1012.0
20260508142015 13 248 4.8 12.9 0.00 0.05 0.05 65 1012.2
20260508141515 13 248 4.8 9.7 0.00 0.05 0.05 65 1012.3
20260508141015 13 248 4.8 11.3 0.00 0.05 0.05 66 1012.3
20260508140515 13 270 4.8 11.3 0.00 0.05 0.05 62 1012.3
20260508140015 13 248 6.4 12.9 0.00 0.05 0.05 66 1012.3
20260508135515 13 225 6.4 12.9 0.00 0.05 0.05 69 1012.3
20260508135015 13 225 6.4 12.9 0.00 0.05 0.05 69 1012.3
20260508134515 13 225 3.2 11.3 0.00 0.05 0.05 67 1012.3
20260508134015 13 270 4.8 12.9 0.00 0.05 0.05 69 1012.2
20260508133515 12 203 4.8 16.1 0.00 0.05 0.05 69 1012.2
20260508133015 12 225 4.8 9.7 0.00 0.05 0.05 71 1012.3
20260508132515 12 225 4.8 11.3 0.00 0.05 0.05 72 1012.2
20260508132015 12 248 4.8 9.7 0.00 0.05 0.05 72 1012.2
20260508131516 12 225 4.8 11.3 0.00 0.05 0.05 72 1012.3
20260508131015 12 248 4.8 8.0 0.00 0.05 0.05 75 1012.3
20260508130515 12 225 4.8 11.3 0.00 0.05 0.05 72 1012.3
20260508130015 12 248 3.2 9.7 0.00 0.05 0.05 73 1012.4
20260508125515 11 248 3.2 8.0 0.00 0.05 0.05 72 1012.5
20260508125015 11 225 6.4 12.9 0.00 0.05 0.05 75 1012.5
20260508124515 11 225 6.4 12.9 0.00 0.05 0.05 76 1012.5
20260508124015 11 225 4.8 12.9 0.00 0.05 0.05 78 1012.5
20260508123515 11 248 4.8 9.7 0.00 0.05 0.05 77 1012.4
20260508123015 11 248 3.2 8.0 0.00 0.05 0.05 79 1012.3
20260508122515 10 293 4.8 11.3 0.00 0.05 0.05 79 1012.3
20260508122015 10 293 3.2 6.4 0.00 0.05 0.05 82 1012.2
20260508121515 9 293 1.6 4.8 0.00 0.05 0.05 85 1012.1
20260508121015 8 293 4.8 16.1 0.00 0.05 0.05 84 1011.9
20260508120515 8 248 3.2 12.9 0.00 0.05 0.05 86 1012.3
20260508120016 8 248 3.2 11.3 0.00 0.05 0.05 90 1012.4
20260508115515 7 270 3.2 9.7 0.00 0.05 0.05 93 1012.5
20260508115015 7 248 4.8 9.7 0.00 0.05 0.05 94 1012.6
20260508114515 7 248 3.2 9.7 0.00 0.05 0.05 95 1012.5
20260508114022 6 248 3.2 6.4 0.00 0.05 0.05 95 1012.4
20260508113515 6 248 4.8 8.0 0.00 0.05 0.05 96 1012.5
20260508113015 6 180 3.2 6.4 0.00 0.05 0.05 96 1012.4
20260508112515 6 225 1.6 8.0 0.00 0.05 0.05 96 1012.5
20260508112015 5 225 3.2 8.0 0.00 0.05 0.05 96 1012.5
20260508111515 5 248 3.2 6.4 0.00 0.05 0.05 96 1012.5
20260508111015 5 225 3.2 6.4 0.00 0.05 0.05 96 1012.4
20260508110515 4 0.0 4.8 0.00 0.05 0.05 96 1012.3
20260508110015 4 0.0 0.0 0.00 0.05 0.05 95 1012.2
20260508105515 4 0.0 0.0 0.00 0.05 0.05 95 1012.1
20260508105015 4 0.0 0.0 0.00 0.05 0.05 94 1011.9
20260508104515 4 0.0 0.0 0.00 0.05 0.05 95 1011.8
20260508104015 4 0.0 0.0 0.00 0.05 0.05 94 1011.8
20260508103515 4 0.0 0.0 0.00 0.05 0.05 94 1011.9
20260508103015 4 0.0 0.0 0.00 0.05 0.05 94 1011.9
20260508102515 4 0.0 0.0 0.00 0.05 0.05 94 1011.8
20260508102015 4 0.0 0.0 0.00 0.05 0.05 94 1011.8
20260508101517 4 0.0 0.0 0.00 0.05 0.05 94 1011.8
20260508101017 4 0.0 0.0 0.00 0.05 0.05 94 1011.8
20260508100517 4 0.0 0.0 0.00 0.05 0.05 94 1011.8
20260508100017 4 0.0 0.0 0.00 0.05 0.05 94 1011.8
20260508095517 4 0.0 0.0 0.00 0.05 0.05 94 1011.8
20260508095017 5 0.0 0.0 0.00 0.05 0.05 93 1011.7
20260508094517 5 0.0 0.0 0.00 0.05 0.05 93 1011.6
20260508094017 5 0.0 0.0 0.00 0.05 0.05 94 1011.6
20260508093517 5 0.0 0.0 0.00 0.05 0.05 93 1011.7
20260508093017 5 0.0 3.2 0.00 0.05 0.05 93 1011.6
20260508092517 5 0.0 3.2 0.00 0.05 0.05 93 1011.6
20260508092017 5 0.0 0.0 0.00 0.05 0.05 93 1011.6
20260508091517 5 0.0 6.4 0.00 0.05 0.05 93 1011.5
20260508091017 5 0.0 0.0 0.00 0.05 0.05 93 1011.5
20260508090517 5 0.0 0.0 0.00 0.05 0.05 93 1011.5
20260508090017 5 0.0 0.0 0.00 0.05 0.05 93 1011.5
20260508085517 5 0.0 0.0 0.00 0.05 0.05 93 1011.5
20260508085016 5 0.0 0.0 0.00 0.05 0.05 93 1011.5
20260508084517 5 0.0 3.2 0.00 0.05 0.05 93 1011.4
20260508084018 5 203 1.6 4.8 0.00 0.05 0.05 93 1011.4
20260508083517 5 0.0 6.4 0.00 0.05 0.05 92 1011.3
20260508083016 6 0.0 0.0 0.00 0.05 0.05 92 1011.4
20260508082516 6 0.0 0.0 0.00 0.05 0.05 92 1011.4
20260508082016 6 0.0 0.0 0.00 0.05 0.05 93 1011.4
20260508081517 6 0.0 0.0 0.00 0.05 0.05 92 1011.4
20260508081017 6 0.0 0.0 0.00 0.05 0.05 92 1011.4
20260508080516 6 0.0 0.0 0.00 0.05 0.05 92 1011.5
20260508080017 6 0.0 0.0 0.00 0.05 0.05 92 1011.4
20260508075517 6 180 1.6 4.8 0.00 0.05 0.05 92 1011.4
20260508075016 6 180 1.6 4.8 0.00 0.05 0.05 92 1011.3
20260508074516 6 180 3.2 8.0 0.00 0.05 0.05 92 1011.2
20260508074017 6 0.0 4.8 0.00 0.05 0.05 92 1011.2
20260508073516 6 203 1.6 4.8 0.00 0.05 0.05 92 1011.3
20260508073017 6 0.0 3.2 0.00 0.05 0.05 92 1011.2
20260508072516 6 0.0 3.2 0.00 0.05 0.05 92 1011.2
20260508072016 6 0.0 3.2 0.00 0.05 0.05 91 1011.3
20260508071516 6 203 1.6 4.8 0.00 0.05 0.05 91 1011.3
20260508071016 6 203 1.6 6.4 0.00 0.05 0.05 91 1011.4
20260508070516 6 0.0 3.2 0.00 0.05 0.05 91 1011.4
20260508070016 6 203 1.6 6.4 0.00 0.05 0.05 91 1011.4
20260508065516 7 203 1.6 9.7 0.00 0.05 0.05 91 1011.5
20260508065016 7 225 3.2 6.4 0.03 0.05 0.05 91 1011.6
20260508064516 7 270 1.6 4.8 0.03 0.05 0.05 90 1011.4
20260508064016 7 0.0 1.6 0.03 0.05 0.05 90 1011.2
20260508063516 7 0.0 3.2 0.05 0.05 0.05 90 1011.3
20260508063016 7 270 1.6 4.8 0.05 0.05 0.05 89 1011.5
20260508062516 7 0.0 4.8 0.05 0.05 0.05 89 1011.5
20260508062016 7 0.0 3.2 0.05 0.05 0.05 89 1011.4
20260508061516 7 0.0 3.2 0.05 0.08 0.05 87 1011.6
20260508061016 7 0.0 3.2 0.05 0.08 0.05 87 1011.6
20260508060517 7 270 3.2 9.7 0.05 0.08 0.05 86 1011.7
20260508060016 7 248 1.6 11.3 0.05 0.08 0.05 86 1011.8
20260508055516 7 270 3.2 11.3 0.05 0.08 0.05 85 1011.9
20260508055016 7 270 4.8 11.3 0.03 0.05 0.03 85 1011.9
20260508054516 7 270 6.4 12.9 0.03 0.08 0.03 84 1011.9
20260508054016 7 270 8.0 24.1 0.03 0.08 0.03 85 1011.8
20260508053516 7 293 3.2 4.8 0.00 0.05 0.00 86 1011.7
20260508053016 7 270 3.2 9.7 0.00 0.05 0.00 87 1011.3
20260508052516 7 203 1.6 4.8 0.00 0.05 0.00 86 1010.9
20260508052016 7 0.0 3.2 0.00 0.05 0.00 86 1010.7
20260508051516 7 0.0 3.2 0.00 0.05 0.00 83 1010.7
20260508051016 7 0.0 3.2 0.00 0.05 0.00 82 1010.4
20260508050516 7 0.0 4.8 0.00 0.05 0.00 82 1010.1
20260508050016 7 203 1.6 4.8 0.00 0.05 0.00 82 1010.0
20260508045516 7 269 0.0 0.0 0.00 0.05 0.00 81 1010.0
20260508045016 7 270 1.6 3.2 0.00 0.05 0.00 80 1009.9
20260508044516 7 0.0 3.2 0.00 0.05 0.00 80 1009.9
20260508044016 7 0.0 0.0 0.00 0.05 0.00 83 1009.8
20260508043516 7 0.0 0.0 0.00 0.05 0.00 84 1009.7
20260508043016 7 0.0 0.0 0.00 0.05 0.00 85 1009.5
20260508042516 7 0.0 0.0 0.00 0.05 0.00 84 1009.4
20260508042016 7 0.0 0.0 0.00 0.05 0.00 81 1009.5
20260508041516 7 0.0 0.0 0.00 0.05 0.00 83 1009.5
20260508041016 7 0.0 0.0 0.00 0.05 0.00 83 1009.5
20260508040516 7 0.0 0.0 0.00 0.05 0.00 83 1009.5
20260508040016 6 0.0 0.0 0.00 0.05 0.05 84 1009.7
20260508035515 6 0.0 0.0 0.00 0.05 0.05 83 1009.7
20260508035015 6 0.0 0.0 0.00 0.05 0.05 82 1009.6
20260508034515 6 0.0 0.0 0.00 0.05 0.05 81 1009.6
20260508034015 6 0.0 0.0 0.00 0.05 0.05 81 1009.5
20260508033515 6 0.0 0.0 0.00 0.05 0.05 82 1009.5
20260508033015 6 0.0 0.0 0.00 0.05 0.05 82 1009.5
20260508032515 6 0.0 0.0 0.00 0.05 0.05 82 1009.6
20260508032015 6 0.0 0.0 0.00 0.05 0.05 82 1009.6
20260508031515 6 0.0 0.0 0.00 0.05 0.05 82 1009.6
20260508031015 6 0.0 0.0 0.00 0.05 0.05 82 1009.6
20260508030515 6 0.0 0.0 0.00 0.05 0.05 82 1009.5
20260508030015 6 0.0 0.0 0.00 0.05 0.05 82 1009.6
20260508025515 6 0.0 0.0 0.00 0.05 0.05 81 1009.6
20260508025015 7 0.0 0.0 0.00 0.05 0.05 80 1009.6
20260508024515 7 0.0 0.0 0.00 0.05 0.05 80 1009.5
20260508024015 7 0.0 0.0 0.00 0.05 0.05 80 1009.6
20260508023515 7 0.0 0.0 0.00 0.05 0.05 80 1009.5
20260508023015 7 0.0 0.0 0.00 0.05 0.05 79 1009.5
20260508022515 7 0.0 0.0 0.00 0.05 0.05 79 1009.5
20260508022015 7 0.0 0.0 0.00 0.05 0.05 79 1009.5
20260508021515 7 0.0 1.6 0.00 0.05 0.05 78 1009.6
20260508021015 7 0.0 0.0 0.00 0.05 0.05 77 1009.6
20260508020515 7 0.0 0.0 0.00 0.05 0.05 77 1009.5
20260508020015 7 0.0 0.0 0.00 0.05 0.05 76 1009.5
20260508015515 7 0.0 0.0 0.00 0.05 0.05 75 1009.5
20260508015015 7 0.0 0.0 0.00 0.05 0.05 74 1009.5
20260508014517 7 0.0 0.0 0.00 0.05 0.05 75 1009.4
20260508014017 8 0.0 0.0 0.00 0.05 0.05 75 1009.3
20260508013517 8 0.0 0.0 0.00 0.05 0.05 73 1009.3
20260508013017 8 0.0 0.0 0.00 0.05 0.05 72 1009.3
20260508012517 8 0.0 0.0 0.00 0.05 0.05 69 1009.2
20260508012017 8 0.0 0.0 0.00 0.05 0.05 68 1009.3
20260508011517 8 0.0 0.0 0.00 0.05 0.05 68 1009.3
20260508011017 9 0.0 0.0 0.00 0.05 0.05 66 1009.3
20260508010517 9 0.0 0.0 0.00 0.05 0.05 65 1009.1
20260508010017 9 0.0 0.0 0.00 0.05 0.05 64 1009.0
20260508005517 10 0.0 0.0 0.00 0.05 0.05 62 1009.0
20260508005017 10 0.0 0.0 0.00 0.05 0.05 61 1008.8
20260508004517 10 0.0 0.0 0.00 0.05 0.05 59 1008.7
20260508004017 10 0.0 0.0 0.00 0.05 0.05 59 1008.8
20260508003517 10 0.0 0.0 0.00 0.05 0.05 59 1008.7
20260508003017 11 0.0 0.0 0.00 0.05 0.05 59 1008.7
20260508002517 11 0.0 0.0 0.00 0.05 0.05 58 1008.6
20260508002017 11 0.0 0.0 0.00 0.05 0.05 57 1008.5
20260508001517 11 0.0 0.0 0.00 0.05 0.05 58 1008.5
20260508001017 11 0.0 0.0 0.00 0.05 0.05 55 1008.4
20260508000517 12 0.0 0.0 0.00 0.05 0.05 56 1008.3
20260508000016 12 0.0 0.0 0.00 0.05 0.05 52 1008.2
20260507235517 12 0.0 0.0 0.00 0.05 0.05 54 1008.2
20260507235016 12 0.0 0.0 0.00 0.08 0.05 51 1008.2
20260507234516 13 0.0 0.0 0.00 0.08 0.05 54 1008.3
20260507234016 13 0.0 3.2 0.00 0.10 0.05 55 1008.3
20260507233516 13 0.0 0.0 0.00 0.10 0.05 54 1008.3
20260507233017 13 0.0 3.2 0.00 0.10 0.05 49 1008.2
20260507232517 14 0.0 3.2 0.00 0.10 0.05 51 1008.0
20260507232016 14 0.0 1.6 0.00 0.10 0.05 46 1008.0
20260507231516 14 0.0 3.2 0.00 0.10 0.05 45 1008.0
20260507231016 14 0.0 3.2 0.00 0.10 0.05 46 1008.0
20260507230516 15 270 1.6 3.2 0.00 0.10 0.05 43 1007.9
20260507230017 15 270 1.6 6.4 0.00 0.10 0.05 45 1007.9
20260507225516 15 293 1.6 4.8 0.00 0.10 0.05 42 1007.9
20260507225016 15 270 4.8 11.3 0.00 0.10 0.05 43 1008.0
20260507224516 15 248 1.6 8.0 0.00 0.10 0.05 43 1007.8
20260507224016 15 293 4.8 14.5 0.00 0.10 0.05 42 1007.9
20260507223516 15 315 3.2 11.3 0.00 0.10 0.05 40 1007.9
20260507223016 15 293 1.6 4.8 0.00 0.10 0.05 40 1008.0
20260507222516 15 315 4.8 9.7 0.00 0.10 0.05 39 1008.0
20260507222016 16 293 3.2 4.8 0.00 0.10 0.05 40 1008.0
20260507221516 16 293 3.2 8.0 0.00 0.10 0.05 41 1008.1
20260507221016 16 293 3.2 12.9 0.00 0.10 0.05 39 1008.1
20260507220516 16 270 3.2 11.3 0.00 0.10 0.05 39 1008.1
20260507220016 17 293 6.4 11.3 0.00 0.10 0.05 39 1008.2
20260507215516 17 293 6.4 14.5 0.00 0.10 0.05 39 1008.2
20260507215016 17 270 4.8 12.9 0.00 0.10 0.05 39 1008.2
20260507214516 17 293 4.8 17.7 0.00 0.10 0.05 39 1008.2
20260507214016 17 270 3.2 11.3 0.00 0.10 0.05 39 1008.1
20260507213516 17 293 4.8 14.5 0.00 0.10 0.05 37 1008.1
20260507213016 17 270 4.8 14.5 0.00 0.10 0.05 36 1008.0
20260507212516 18 315 4.8 14.5 0.00 0.10 0.05 35 1008.0
20260507212016 18 315 3.2 11.3 0.00 0.10 0.05 35 1007.9
20260507211516 18 315 4.8 12.9 0.00 0.10 0.05 36 1007.9
20260507211016 18 270 4.8 14.5 0.00 0.10 0.05 38 1007.8
20260507210516 18 270 9.7 19.3 0.00 0.10 0.05 35 1007.8
20260507210016 18 293 8.0 17.7 0.00 0.10 0.05 37 1007.7
20260507205516 18 270 6.4 14.5 0.00 0.10 0.05 38 1007.7
20260507205016 18 270 6.4 25.7 0.00 0.10 0.05 36 1007.8
20260507204516 18 225 3.2 11.3 0.00 0.10 0.05 37 1007.8
20260507204016 18 338 4.8 12.9 0.00 0.10 0.05 39 1007.8
20260507203516 18 270 4.8 11.3 0.00 0.10 0.05 38 1007.8
20260507203016 18 338 1.6 4.8 0.00 0.10 0.05 40 1007.8
20260507202516 17 248 6.4 11.3 0.00 0.10 0.05 40 1007.7
20260507202016 17 293 6.4 14.5 0.00 0.13 0.05 42 1007.8
20260507201516 17 293 4.8 14.5 0.00 0.13 0.05 39 1007.8
20260507201016 17 293 6.4 14.5 0.00 0.13 0.05 38 1007.9
20260507200516 17 315 6.4 14.5 0.00 0.15 0.05 38 1007.8
20260507200016 18 315 4.8 16.1 0.00 0.15 0.05 38 1007.7
20260507195516 18 293 4.8 11.3 0.00 0.18 0.05 37 1007.9
20260507195016 19 315 4.8 11.3 0.00 0.18 0.05 36 1007.9
20260507194516 19 0 4.8 14.5 0.00 0.18 0.05 39 1007.9
20260507194016 18 315 4.8 16.1 0.00 0.18 0.05 40 1007.9
20260507193516 18 293 4.8 14.5 0.00 0.18 0.05 37 1007.9
20260507193016 18 225 6.4 14.5 0.00 0.18 0.05 39 1008.1
20260507192516 18 315 6.4 16.1 0.00 0.20 0.05 36 1008.2
20260507192016 18 225 6.4 14.5 0.00 0.20 0.05 40 1008.3
20260507191516 18 270 3.2 11.3 0.00 0.20 0.05 45 1008.4
20260507191016 17 248 4.8 9.7 0.00 0.20 0.05 44 1008.3
20260507190516 17 248 3.2 11.3 0.00 0.20 0.05 42 1008.5
20260507190016 16 270 1.6 4.8 0.00 0.23 0.05 45 1008.6
20260507185516 17 315 4.8 11.3 0.00 0.23 0.05 40 1008.6
20260507185016 17 315 4.8 12.9 0.00 0.23 0.05 38 1008.7
20260507184516 18 270 8.0 19.3 0.00 0.25 0.05 38 1008.8
20260507184016 18 248 8.0 17.7 0.00 0.25 0.05 43 1008.7
20260507183516 17 270 3.2 12.9 0.00 0.28 0.05 45 1008.8
20260507183016 17 293 3.2 11.3 0.00 0.30 0.05 43 1008.7
20260507182516 17 293 3.2 9.7 0.00 0.33 0.05 41 1008.9
20260507182016 17 293 3.2 6.4 0.00 0.36 0.05 39 1008.9
20260507181516 17 293 4.8 12.9 0.00 0.38 0.05 44 1009.1
20260507181016 18 270 8.0 16.1 0.00 0.38 0.05 38 1009.1
20260507180516 18 315 4.8 14.5 0.00 0.38 0.05 41 1009.1
20260507180016 17 270 1.6 11.3 0.00 0.38 0.05 42 1009.1
20260507175516 17 45 3.2 9.7 0.00 0.38 0.05 42 1009.1
20260507175016 17 315 4.8 11.3 0.00 0.38 0.05 45 1009.3
20260507174516 17 293 3.2 11.3 0.00 0.41 0.05 42 1009.3